Regional Weather Roundup
Issued by NWS

Home | Current Version | Previous Version | Graphics & Text | Print | Product List | Glossary On
Versions: 1 2 3 4 5 6 7 8 9 10 11 12 13 14 15 16 17 18 19 20 21 22 23 24 25 26 27 28 29 30 31 32 33 34 35 36 37 38 39 40 41 42 43 44 45 46 47 48 49 50
000
ASUS45 KTFX 221019
RWRMT
MONTANA HOURLY WEATHER ROUNDUP
NATIONAL WEATHER SERVICE GREAT FALLS MT
419 AM MDT TUE JUL 22 2014

NOTE: "FAIR" INDICATES FEW OR NO CLOUDS BELOW 12000 FEET WITH NO
SIGNIFICANT WEATHER AND/OR OBSTRUCTIONS TO VISIBILITY.

* THESE STATIONS ARE NOT UNDER NWS QUALITY CONTROL. THEY DO NOT
   REPORT WEATHER SUCH AS PRECIPITATION OR FOG.

MTZ001>007-043-221100-
WEST OF THE DIVIDE
CITY           SKY/WX    TMP DP  RH WIND       PRES   REMARKS
KALISPELL      MOCLDY    50  45  83 W5        30.10S
MISSOULA       PTCLDY    55  41  59 CALM      30.13S
BUTTE          CLOUDY    55  52  90 CALM      30.24S
MULLAN PASS    CLOUDY    54  30  40 S3        30.21S
* ESSEX        N/A       52  42  69 S11G16     N/A
* LINCOLN      N/A       52  51  96 S2         N/A
* LOOKOUT PASS N/A       53  39  59 S1         N/A
* POLSON       N/A       54  36  51 SE1        N/A
* RONAN APT    PTCLDY    50  46  86 N/A        N/A
* SEELEY LAKE  N/A       44  40  86 N2         N/A
* THOMP F APT  CLOUDY    52  46  80 NE5        N/A
* YAAK HILL    N/A       54  45  72 N/A        N/A
$$

MTZ008-052>055-221100-
SOUTHWEST MONTANA
CITY           SKY/WX    TMP DP  RH WIND       PRES   REMARKS
BOZEMAN        PTCLDY    59  52  78 S7        30.17R
DILLON         PTCLDY    57  52  83 SW6       30.20R
W YELLOWSTONE  FOG       45  45 100 CALM      30.32R VSB M1/4
* THREE FORKS  MOCLDY    64  64 100 N/A        N/A
* BOULDER HILL N/A       58  44  60 VRB1       N/A
* MONIDA PASS  N/A       50  45  83 SE9        N/A
* RAYNOLDS PAS N/A       51  35  54 S8         N/A
* WHITEHALL    N/A       62  51  67 W3         N/A
* WISE RIVER   N/A       56  52  87 NW3        N/A
$$

MTZ009>010-012-014-046-048-049-054-221100-
EAST SLOPES AND CENTRAL MONTANA
CITY           SKY/WX    TMP DP  RH WIND       PRES   REMARKS
CUT BANK       PTCLDY    48  46  93 N7        30.16F
GREAT FALLS    CLOUDY    61  48  62 E5        30.13S
HELENA         CLOUDY    64  50  61 CALM      30.15S
MALMSTROM AFB  MOCLDY    59  46  62 CALM      30.14F
* CONRAD       PTCLDY    48  48 100 N/A        N/A
* DEARBORN     N/A       63  48  58 W1         N/A
* EAST GLACIER N/A       44  42  93 NW6        N/A
* MONARCH      N/A       58  41  53 E3         N/A
* SAINT MARY   N/A       44  41  89 SE3        N/A
* SWEET GRASS  N/A       56  52  87 SW9        N/A
* WHITE SULPH  N/A       58  55  90 N5G12      N/A
$$

MTZ011-013-016-021-035-040-045-047-050-051-221100-
NORTH CENTRAL MONTANA
CITY           SKY/WX    TMP DP  RH WIND       PRES   REMARKS
HAVRE          CLEAR     54  50  86 NE7       30.12S
LEWISTOWN      CLOUDY    57  54  90 SE3       30.18R
* FORT BENTON  PTCLDY    57  52  83 CALM      30.13R
* CHESTER      N/A       52  48  86 NE1        N/A
* DENTON       N/A       55  53  93 N/A        N/A
* GEYSER       N/A       60  47  62 E6         N/A
* JUDITH GAP   N/A       57  55  93 VRB6       N/A
* LOMA         N/A       59  52  78 NE6        N/A
$$

MTZ017>020-022>027-061-062-221100-
NORTHEAST MONTANA
CITY           SKY/WX    TMP DP  RH WIND       PRES   REMARKS
GLASGOW        CLEAR     57  54  90 NE6       30.10R
GLENDIVE       PTCLDY    57  54  90 NW5       30.13R
JORDAN         PTCLDY    55  52  90 CALM      30.11R
SIDNEY         PTCLDY    55  52  90 CALM      30.11R
WOLF POINT     CLEAR     55  54  96 CALM      30.10R
* BEAVER HILL  N/A       60  58  93 SE6        N/A
* CIRCLE       N/A       60  56  87 N/A        N/A
* LINDSAY DVD  N/A       59  57  93 N/A        N/A
* NAVAJO       N/A       58  56  93 W7         N/A
$$

MTZ028>042-056>058-221100-
SOUTHCENTRAL AND SOUTHEAST MONTANA
CITY           SKY/WX    TMP DP  RH WIND       PRES   REMARKS
BAKER          PTCLDY    55  54  96 SE3       30.14R
BILLINGS       CLOUDY    63  54  73 NE6       30.14R
LIVINGSTON     MOCLDY    57  48  72 SE3       30.18R
MILES CITY     CLOUDY    64  57  78 NE5       30.10R
* LAUREL APT   CLOUDY    57  48  72 N/A        N/A
* ROUNDUP APT  CLOUDY    61  55  81 N/A        N/A
* ALZADA       N/A       60  58  93 NW2        N/A
* HYSHAM       N/A       63  52  68 E2         N/A
* LAME DEER    N/A       63  54  73 VRB4       N/A
* REED POINT   N/A       60  54  81 W4         N/A
* ROSCOE HILL  N/A       63  44  50 NE1        N/A
$$

REGIONAL REPORTS...DAKOTAS
CITY           SKY/WX    TMP DP  RH WIND       PRES   REMARKS
WILLISTON      PTCLDY    57  55  93 CALM      30.09R
DICKINSON      FOG       55  55 100 W3        30.11R VSB M1/4
CROSBY         N/A       57  57 100 CALM      30.10R
TIOGA          FOG       50  50 100 CALM      30.14R VSB M1/4
WATFORD CITY   FOG       54  54 100 CALM      30.08S VSB 1/2
BISMARCK       CLOUDY    64  63  97 W3        30.08R
GRAND FORKS    CLOUDY    63  61  93 NW8       29.94R
FARGO          CLOUDY    66  63  90 NW14      29.95R
BUFFALO SD     PTCLDY    63  61  93 N9        30.08R
RAPID CITY     TSTM      64  63  97 SW13      30.18R
$$

REGIONAL REPORTS...WYOMING/IDAHO/WASHINGTON
CITY           SKY/WX    TMP DP  RH WIND       PRES   REMARKS
GILLETTE       PTCLDY    61  54  78 SW6       30.20R
SHERIDAN       PTCLDY    57  54  90 CALM      30.17R
CODY           CLOUDY    66  41  40 CALM      30.23R
YELLOWSTONE LA PTCLDY    43  41  93 CALM      30.43S
SALMON         CLOUDY    64  50  61 CALM      30.13R
MULLAN PASS    CLOUDY    54  30  40 S3        30.21S
SAND POINT     CLOUDY    54  52  93 CALM      30.06R
SPOKANE        CLOUDY    66  43  43 SE5       30.03R
$$

REGIONAL REPORTS...ALBERTA
CITY           SKY/WX    TMP DP  RH WIND       PRES   REMARKS
CALGARY        PTCLDY    55  52  90 S8        30.13S
LETHBRIDGE     FOG       48  48 100 SW6       30.14R VSB 1 3/4
EDMONTON       N/A       45  45 100 S5        30.11R
WATERTON GATE  N/A       50  48  93 SW2        N/A
CARDSTON       N/A       48  48 100 S5         N/A
MILK RIVER     N/A       46  45  96 NW6        N/A
$$

REGIONAL REPORTS...SASKATCHEWAN
CITY           SKY/WX    TMP DP  RH WIND       PRES   REMARKS
SWIFT CURRENT  FOG       48  46  93 S2        30.14R VSB 3
MOOSE JAW      FOG      N/A N/A N/A W3         N/A   VSB M1/4
REGINA         FAIR      55  54  96 N7        30.11R
VAL MARIE      N/A       57  55  93 N8         N/A
ASSINIBOIA     N/A       55  55 100 N2         N/A
CORONACH       N/A       50  50 100 W7         N/A

$$




USA.gov is the U.S. government's official web portal to all federal, state and local government web resources and services.